Location: Essen
(51.4609°N, 7.0127°E)
Time: 13:51:15
(UTC+01:00)

ISS - Pass Details

Date: 11 November 2017
Orbit: 402 x 407 km, 51.6° (Epoch: 24 November)

Event Time Altitude Azimuth Distance (km) Brightness Sun altitude
Exits shadow 05:09:50 38° 90° (E) 628 -2.4 -23.8°
Drops below altitude 10° 05:11:59 10° 93° (E) 1,457 0.1 -23.5°
Sets 05:14:04 0° 94° (E) 2,316 1.5 -23.2°
